Regional Weather Roundup
Issued by NWS Jackson, KY

Home | Current Version | Previous Version | Text Only | Print | Product List | Glossary Off
Versions: 1 2 3 4 5 6 7 8 9 10 11 12 13 14 15 16 17 18 19 20 21 22 23 24 25 26 27 28 29 30 31 32 33 34 35 36 37 38 39 40 41 42 43 44 45 46 47 48

000
ASUS43 KJKL 312110
RWRJKL

EAST KENTUCKY HOURLY WEATHER ROUNDUP
NATIONAL WEATHER SERVICE JACKSON KY
500 PM EDT FRI JUL 31 2015

NOTE: "FAIR" INDICATES FEW OR NO CLOUDS BELOW 12,000 FEET WITH
NO SIGNIFICANT WEATHER AND/OR OBSTRUCTIONS TO VISIBILITY.

* THESE REPORTS ARE NOT UNDER NWS QUALITY CONTROL AND MAY NOT
  REPORT WEATHER SUCH AS PRECIPITATION AND FOG.

KYZ079-080-083-085-087-088-110-112-115-119-120-312200
...EASTERN KENTUCKY...

CITY           SKY/WX    TMP DP  RH WIND       PRES   REMARKS
JACKSON        SUNNY     85  58  39 CALM      30.04F
LONDON         SUNNY     86  54  33 NW7       30.04F
SOMERSET*      MOSUNNY   82  54  36 N7        30.05S
MONTICELLO*    SUNNY     88  60  38 CALM      30.07F
MIDDLESBORO*   SUNNY     84  58  41 N7        30.03F
HAZARD APT*    CLEAR     84  57  39 CALM      30.03F
BLACK MTN*       N/A     70  57  64 N5          N/A
PIKEVILLE APT* MOSUNNY   82  57  42 CALM      30.03F
BIG SANDY*     PTCLDY    85  60  43 CALM      30.02F
MOREHEAD APT*  PTCLDY    86  61  42 VRB6      30.03F
$$

KYZ035-036-041-042-044-050-067-078-099-312200
...CENTRAL KENTUCKY...

CITY           SKY/WX    TMP DP  RH WIND       PRES   REMARKS
MT STERLING*   MOSUNNY   86  64  48 NW5       30.03F
FLEMING/MASON* MOSUNNY   84  61  45 W8        30.01F
DANVILLE*      MOSUNNY   86  61  42 NW5       30.04F
RICHMOND*      SUNNY     86  55  35 W5        30.03F
LEXINGTON      SUNNY     85  62  46 W8        30.02F
FRANKFORT      MOSUNNY   86  57  37 NW9       30.01F
$$

KYZ091>093-OHZ055-061-077-WVZ005-015-034-035-042-312200
...SOUTHERN OHIO/WEST VIRGINIA...

CITY           SKY/WX    TMP DP  RH WIND       PRES   REMARKS
COVINGTON      MOSUNNY   87  58  37 W6        30.00F
COLUMBUS       MOSUNNY   86  57  37 W12       29.94F
DAYTON         MOSUNNY   85  60  42 W13       29.97F
WILMINGTON     MOSUNNY   84  57  39 W10       29.98F
HUNTINGTON     MOSUNNY   86  59  39 W9        29.98F
CHARLESTON     MOSUNNY   86  57  37 VRB3      29.98F
PINEVILLE*     MOSUNNY   78  66  66 MISG      30.09S
BECKLEY        MOSUNNY   78  56  46 NW10      30.07F
BLUEFIELD      SUNNY     80  56  43 W8        30.09F
$$

VAZ002-007-008-TNZ017-027-036-066-071-312200
...SOUTHWEST VIRGINIA/EAST TENNESSEE...

CITY           SKY/WX    TMP DP  RH WIND       PRES   REMARKS
WISE*          MOSUNNY   81  52  36 N5        30.11F
ABINGDON*      SUNNY     83  51  32 NW3       30.06S
BRISTOL        MOSUNNY   86  53  32 CALM      30.02F
KNOXVILLE      MOSUNNY   87  58  37 N12G17    30.00F
OAK RIDGE      SUNNY     89  58  34 VRB7      30.02F
CROSSVILLE     SUNNY     83  56  39 N8        30.07F
NASHVILLE      MOSUNNY   90  60  36 N12       30.03F
$$

...KEY TO REMARKS...
VSB - VISIBILITY IN MILES
WCI - WIND CHILL INDEX
HX  - HEAT INDEX

$$



USA.gov is the U.S. government's official web portal to all federal, state and local government web resources and services.